"Pseudo-MPEC" for jkN3001

Created 2021 Nov 28 6:07:31 UT using Find_Orb

Click here for an explanation of pseudo-MPECs

 
 Astrometry: 
     jkN3001 LC2021 11 07.58768611 29 19.52 +10 28 09.2    ~B867 22.2 rVNEOCP568
     jkN3001 LC2021 11 07.60189711 29 21.54 +10 28 16.8    ~B867 21.9 rVNEOCP568
     jkN3001 LC2021 11 07.61607911 29 23.57 +10 28 24.5    ~B867 21.6 rVNEOCP568
     jkN3001 LC2021 11 07.63009811 29 25.56 +10 28 32.1    ~B867 21.7 rVNEOCP568

Station data:
(568) Mauna Kea  (N19.826116 W155.472200)  US/Hawaii.

Orbital elements:  jkN3001
   Perihelion 2021 Oct 2.615578 +/- 72.7416 TT = 14:46:26 (JD 2459490.115578)
Epoch 2021 Nov  8.0 TT = JDT 2459526.5   Earth MOID: 0.0516   AutoNEOCP
M  40.21057329 +/- 85.229973        (J2000 ecliptic)
n   1.10515906 +/- 1.0513           Peri.  334.53826 +/- 109.35335
a   0.92651585 +/- 0.587565         Node    37.89574 +/- 93.424909
e   0.0310414 +/- 0.21186           Incl.    4.52291 +/- 62.045637
P   0.89/325.74d           H 21.7   G  0.15   U 12.8  SR
q 0.89775544 +/- 0.462946    Q 0.95527626 +/- 12.5472
From 4 observations 2021 Nov. 7 (61.1 min); mean residual 0".12
Residuals in arcseconds: 
211107 568  .17+  .05+    211107 568  .08-  .03-    
211107 568  .22-  .07-    211107 568  .12+  .04+    

Ephemerides (geocentric):
Date (UTC) HH   RA              Dec         delta   r     elong  mag " sig PA
---- -- -- --  -------------   -----------  ------ ------ -----  --- ---- ---
2021 11 28 06  12 26 52.474   +10 26 26.00  .22027 .91399  64.6 22.0  57d   8
2021 11 28 07  12 26 59.912   +10 26 08.49  .22035 .91402  64.6 22.0  57d   8
2021 11 28 08  12 27 07.352   +10 25 50.93  .22043 .91404  64.6 22.0  57d   8
2021 11 28 09  12 27 14.793   +10 25 33.32  .22051 .91406  64.6 22.0  57d   8
2021 11 28 10  12 27 22.235   +10 25 15.65  .22059 .91408  64.6 22.0  57d   8
2021 11 28 11  12 27 29.679   +10 24 57.92  .22067 .91410  64.6 22.0  57d   8
2021 11 28 12  12 27 37.124   +10 24 40.14  .22075 .91412  64.7 22.0  57d   8
2021 11 28 13  12 27 44.569   +10 24 22.31  .22083 .91414  64.7 22.0  57d   8
2021 11 28 14  12 27 52.017   +10 24 04.42  .22091 .91416  64.7 22.0  57d   8
2021 11 28 15  12 27 59.465   +10 23 46.47  .22099 .91418  64.7 22.0  57d   8
2021 11 28 16  12 28 06.915   +10 23 28.47  .22107 .91421  64.7 22.0  57d   8
2021 11 28 17  12 28 14.365   +10 23 10.42  .22114 .91423  64.7 22.0  57d   8
2021 11 28 18  12 28 21.817   +10 22 52.31  .22122 .91425  64.7 22.0  57d   8
2021 11 28 19  12 28 29.270   +10 22 34.15  .22130 .91427  64.7 22.0  57d   8
2021 11 28 20  12 28 36.725   +10 22 15.93  .22138 .91429  64.8 22.0  57d   8
2021 11 28 21  12 28 44.180   +10 21 57.66  .22146 .91431  64.8 22.0  57d   8
2021 11 28 22  12 28 51.637   +10 21 39.34  .22154 .91433  64.8 22.0  57d   8
2021 11 28 23  12 28 59.095   +10 21 20.96  .22162 .91435  64.8 22.0  57d   8
2021 11 29 00  12 29 06.554   +10 21 02.53  .22170 .91438  64.8 22.0  57d   8
2021 11 29 01  12 29 14.014   +10 20 44.04  .22178 .91440  64.8 22.0  57d   9
2021 11 29 02  12 29 21.476   +10 20 25.50  .22185 .91442  64.8 22.0  57d   9
2021 11 29 03  12 29 28.938   +10 20 06.91  .22193 .91444  64.8 22.0  57d   9
2021 11 29 04  12 29 36.402   +10 19 48.26  .22201 .91446  64.9 22.0  57d   9
2021 11 29 05  12 29 43.867   +10 19 29.56  .22209 .91448  64.9 22.0  57d   9
2021 11 29 06  12 29 51.333   +10 19 10.80  .22217 .91450  64.9 22.0  57d   9
2021 11 29 07  12 29 58.800   +10 18 52.00  .22225 .91452  64.9 22.0  57d   9
2021 11 29 08  12 30 06.268   +10 18 33.14  .22233 .91455  64.9 22.0  57d   9
2021 11 29 09  12 30 13.738   +10 18 14.22  .22241 .91457  64.9 22.0  57d   9
2021 11 29 10  12 30 21.208   +10 17 55.25  .22248 .91459  64.9 22.0  57d   9
2021 11 29 11  12 30 28.680   +10 17 36.23  .22256 .91461  64.9 22.0  57d   9
2021 11 29 12  12 30 36.153   +10 17 17.16  .22264 .91463  64.9 22.0  57d   9
2021 11 29 13  12 30 43.627   +10 16 58.04  .22272 .91465  65.0 22.0  57d   9
2021 11 29 14  12 30 51.102   +10 16 38.86  .22280 .91467  65.0 22.0  57d   9
2021 11 29 15  12 30 58.578   +10 16 19.63  .22288 .91469  65.0 22.0  57d   9
2021 11 29 16  12 31 06.056   +10 16 00.34  .22295 .91472  65.0 22.0  57d   9
2021 11 29 17  12 31 13.534   +10 15 41.00  .22303 .91474  65.0 22.0  57d   9
2021 11 29 18  12 31 21.014   +10 15 21.62  .22311 .91476  65.0 22.0  57d   9
2021 11 29 19  12 31 28.494   +10 15 02.17  .22319 .91478  65.0 22.0  57d   9
2021 11 29 20  12 31 35.976   +10 14 42.68  .22327 .91480  65.0 22.0  57d   9
2021 11 29 21  12 31 43.459   +10 14 23.14  .22335 .91482  65.1 22.0  58d   9
2021 11 29 22  12 31 50.943   +10 14 03.54  .22342 .91484  65.1 22.0  58d   9
2021 11 29 23  12 31 58.428   +10 13 43.89  .22350 .91487  65.1 22.0  58d   9
2021 11 30 00  12 32 05.914   +10 13 24.19  .22358 .91489  65.1 22.0  58d   9
2021 11 30 01  12 32 13.401   +10 13 04.43  .22366 .91491  65.1 22.0  58d   9
2021 11 30 02  12 32 20.890   +10 12 44.63  .22374 .91493  65.1 22.0  58d   9
2021 11 30 03  12 32 28.379   +10 12 24.77  .22381 .91495  65.1 22.0  58d   9
2021 11 30 04  12 32 35.869   +10 12 04.86  .22389 .91497  65.1 22.0  58d   9
2021 11 30 05  12 32 43.361   +10 11 44.90  .22397 .91499  65.1 22.0  58d   9